E.HIDROGRÀFICA de la RIERA MAJOR





Hora UTC 05:50
Temperatura 0.9 ºC
Humedad 95.4 %
Presión 0.0 hPa
Pluja 0.0 mm
Radiación solar 0.0 W/m²

Datos diarios 2022-12-01



Hora UTC (invierno +1h; verano +2h)
Temperatura (ºC) Humedad (%) Presión (hPa) Precipitación (mm) Radiación solar (W/m²)
Hora UTC Aire Humedad Presión Intent. máx 5 min. Rad. Sol.
00:05 2.8 92.3 0.0 0.0 0.0
00:10 2.8 92.2 0.0 0.0 0.0
00:15 2.7 91.6 0.0 0.0 0.0
00:20 2.7 91.9 0.0 0.0 0.0
00:25 2.7 92.6 0.0 0.0 0.0
00:30 2.8 93.0 0.0 0.0 0.0
00:35 2.9 92.8 0.0 0.0 0.0
00:40 3.0 92.7 0.0 0.0 0.0
00:45 2.9 91.9 0.0 0.0 0.0
00:50 2.9 92.3 0.0 0.0 0.0
00:55 3.0 92.7 0.0 0.0 0.0
01:00 3.0 92.4 0.0 0.0 0.0
01:05 3.0 92.6 0.0 0.0 0.0
01:10 3.1 92.8 0.0 0.0 0.0
01:15 3.0 92.0 0.0 0.0 0.0
01:20 3.0 92.5 0.0 0.0 0.0
01:25 3.0 92.8 0.0 0.0 0.0
01:30 3.0 93.1 0.0 0.0 0.0
01:35 3.1 93.0 0.0 0.0 0.0
01:40 3.1 92.9 0.0 0.0 0.0
01:45 3.0 92.4 0.0 0.0 0.0
01:50 3.0 92.8 0.0 0.0 0.0
01:55 2.8 92.5 0.0 0.0 0.0
02:00 2.6 93.1 0.0 0.0 0.0
02:05 2.3 93.3 0.0 0.0 0.0
02:10 2.2 94.3 0.0 0.0 0.0
02:15 2.1 94.4 0.0 0.0 0.0
02:20 1.9 94.2 0.0 0.0 0.0
02:25 1.6 94.4 0.0 0.0 0.0
02:30 1.6 95.0 0.0 0.0 0.0
02:35 1.3 94.4 0.0 0.0 0.0
02:40 0.9 94.6 0.0 0.0 0.0
02:45 0.8 95.2 0.0 0.0 0.0
02:50 0.8 95.9 0.0 0.0 0.0
02:55 0.9 96.3 0.0 0.0 0.0
03:00 0.9 96.1 0.0 0.0 0.0
03:05 1.1 96.1 0.0 0.0 0.0
03:10 1.0 95.5 0.0 0.0 0.0
03:15 1.2 96.2 0.0 0.0 0.0
03:20 1.4 96.2 0.0 0.0 0.0
03:25 1.5 96.0 0.0 0.0 0.0
03:30 1.4 94.8 0.0 0.0 0.0
03:35 1.2 95.3 0.0 0.0 0.0
03:40 1.2 95.8 0.0 0.0 0.0
03:45 1.3 96.1 0.0 0.0 0.0
03:50 1.5 96.4 0.0 0.0 0.0
03:55 1.6 96.2 0.0 0.0 0.0
04:00 1.7 95.7 0.0 0.0 0.0
04:05 1.7 95.2 0.0 0.0 0.0
04:10 1.8 94.8 0.0 0.0 0.0
04:15 1.7 94.7 0.0 0.0 0.0
04:20 1.8 95.0 0.0 0.0 0.0
04:25 1.9 94.7 0.0 0.0 0.0
04:30 1.7 94.1 0.0 0.0 0.0
04:35 1.5 94.3 0.0 0.0 0.0
04:40 1.3 94.4 0.0 0.0 0.0
04:45 1.1 95.1 0.0 0.0 0.0
04:50 1.0 95.7 0.0 0.0 0.0
04:55 0.9 95.7 0.0 0.0 0.0
05:00 0.9 96.1 0.0 0.0 0.0
05:05 0.9 96.3 0.0 0.0 0.0
05:10 0.8 95.9 0.0 0.0 0.0
05:15 0.5 94.9 0.0 0.0 0.0
05:20 0.3 95.4 0.0 0.0 0.0
05:25 0.6 96.8 0.0 0.0 0.0
05:30 0.8 96.6 0.0 0.0 0.0
05:35 0.9 96.2 0.0 0.0 0.0
05:40 0.8 95.4 0.0 0.0 0.0
05:45 0.9 95.8 0.0 0.0 0.0
05:50 0.9 95.4 0.0 0.0 0.0
Máxima 3.2 96.8 0.0 0.0 0.0
Mínima 0.3 91.6 0.0
Total 0.0